K5TWC Weather Reports


Display with metric or nautical units.
time (UTC)temp
F
wind
direction
speed
MPH
gust
MPH
rain 1hr
in
rain 24hr
in
rain mn
in
humidity
%
barometer
mb
20260904030008 83 175 3.0 8.0 0.00 0.04 0.04 73 1014.0
20260904025504 83 190 2.0 7.0 0.00 0.04 0.04 74 1013.9
20260904025004 83 194 1.0 7.0 0.00 0.04 0.04 74 1013.9
20260904024516 83 177 1.0 7.0 0.00 0.04 0.04 74 1013.9
20260904024008 83 207 2.0 6.0 0.00 0.04 0.04 73 1013.8
20260904023510 83 177 0.0 7.0 0.00 0.04 0.04 73 1013.7
20260904023019 83 196 2.0 9.0 0.00 0.04 0.04 73 1013.6
20260904022511 84 192 1.0 11.0 0.00 0.04 0.04 72 1013.4
20260904022012 84 186 2.0 11.0 0.00 0.04 0.04 72 1013.2
20260904021524 84 175 2.0 10.0 0.00 0.04 0.04 72 1013.2
20260904021012 84 165 2.0 12.0 0.00 0.04 0.04 72 1013.1
20260904020514 84 191 4.0 12.0 0.00 0.04 0.04 72 1013.0
20260904020040 84 193 2.0 9.0 0.00 0.04 0.04 72 1012.9
20260904015514 84 178 2.0 9.0 0.00 0.04 0.04 72 1012.9
20260904015018 84 188 3.0 8.0 0.00 0.04 0.04 72 1012.8
20260904014510 85 216 3.0 8.0 0.00 0.04 0.04 72 1012.8
20260904014006 85 184 1.0 9.0 0.00 0.04 0.04 73 1012.7
20260904013505 85 190 1.0 9.0 0.00 0.04 0.04 73 1012.7
20260904013018 85 196 3.0 12.0 0.00 0.04 0.04 73 1012.6
20260904012514 85 169 2.0 12.0 0.00 0.04 0.04 73 1012.6
20260904012010 85 170 2.0 9.0 0.00 0.04 0.04 73 1012.5
20260904011528 85 142 1.0 6.0 0.00 0.04 0.04 73 1012.4
20260904011010 86 193 1.0 9.0 0.00 0.04 0.04 72 1012.3
20260904010513 86 159 0.0 13.0 0.00 0.04 0.04 72 1012.4
20260904010030 86 124 4.0 13.0 0.00 0.04 0.04 71 1012.3
20260904005515 86 224 3.0 11.0 0.00 0.04 0.04 71 1012.4
20260904005012 86 190 1.0 15.0 0.00 0.04 0.04 71 1012.5
20260904004530 86 157 5.0 15.0 0.00 0.04 0.04 70 1012.4
20260904004014 87 183 4.0 11.0 0.00 0.04 0.04 70 1012.5
20260904003516 87 160 4.0 12.0 0.00 0.04 0.04 69 1012.4
20260904003013 87 148 3.0 12.0 0.00 0.04 0.04 68 1012.4
20260904002506 88 109 3.0 9.0 0.00 0.04 0.04 68 1012.3
20260904002006 88 123 1.0 12.0 0.00 0.04 0.04 67 1012.3
20260904001519 88 143 4.0 14.0 0.00 0.04 0.04 66 1012.3
20260904001008 88 153 4.0 14.0 0.00 0.04 0.04 65 1012.3
20260904000511 89 170 4.0 12.0 0.00 0.04 0.04 64 1012.3
20260904000028 89 178 3.0 13.0 0.00 0.04 0.04 63 1012.3
20260903235509 89 130 4.0 13.0 0.00 0.04 0.04 62 1012.3
20260903235018 89 126 4.0 10.0 0.00 0.04 0.04 62 1012.2
20260903234528 89 152 3.0 15.0 0.00 0.04 0.04 63 1012.3
20260903234015 89 138 4.0 15.0 0.00 0.04 0.04 63 1012.3
20260903233514 89 155 5.0 12.0 0.00 0.04 0.04 63 1012.2
20260903233034 90 144 4.0 12.0 0.00 0.04 0.04 64 1012.2
20260903232505 90 96 0.0 13.0 0.00 0.04 0.04 65 1012.1
20260903232007 90 151 5.0 15.0 0.00 0.04 0.04 64 1012.0
20260903231516 90 142 5.0 15.0 0.00 0.04 0.04 63 1012.1
20260903231006 90 159 3.0 10.0 0.00 0.04 0.04 63 1012.1
20260903230511 90 169 5.0 13.0 0.00 0.04 0.04 63 1012.0
20260903230033 90 173 5.0 13.0 0.00 0.04 0.04 63 1012.1
20260903225512 91 169 2.0 11.0 0.00 0.04 0.04 63 1012.1
20260903225011 91 149 6.0 11.0 0.00 0.04 0.04 62 1012.0
20260903224527 91 165 4.0 11.0 0.00 0.04 0.04 62 1012.0
20260903224012 91 146 5.0 13.0 0.00 0.04 0.04 62 1012.0
20260903223516 91 136 5.0 13.0 0.00 0.04 0.04 62 1012.0
20260903223013 91 146 5.0 12.0 0.00 0.04 0.04 62 1011.9
20260903222503 91 179 1.0 11.0 0.00 0.04 0.04 62 1012.0
20260903222004 91 148 2.0 11.0 0.00 0.04 0.04 62 1011.9
20260903221510 91 162 4.0 13.0 0.00 0.04 0.04 62 1012.0
20260903221004 91 150 4.0 13.0 0.00 0.04 0.04 61 1012.0
20260903220506 91 199 4.0 12.0 0.00 0.04 0.04 61 1012.0
20260903220030 92 174 5.0 12.0 0.00 0.04 0.04 61 1012.1
20260903215508 92 158 3.0 11.0 0.00 0.04 0.04 61 1012.2
20260903215012 91 161 1.0 11.0 0.00 0.04 0.04 63 1012.2
20260903214527 92 135 5.0 11.0 0.00 0.04 0.04 63 1012.2
20260903214012 92 126 2.0 11.0 0.00 0.04 0.04 62 1012.3
20260903213512 92 145 3.0 11.0 0.00 0.04 0.04 61 1012.4
20260903213030 91 157 3.0 12.0 0.00 0.04 0.04 61 1012.4
20260903212515 91 173 4.0 15.0 0.00 0.04 0.04 61 1012.4
20260903212019 92 132 6.0 15.0 0.00 0.04 0.04 61 1012.4
20260903211510 92 111 5.0 13.0 0.00 0.04 0.04 60 1012.5
20260903211006 92 153 4.0 12.0 0.00 0.04 0.04 60 1012.5
20260903210507 92 186 3.0 12.0 0.00 0.04 0.04 61 1012.5
20260903210017 92 147 3.0 11.0 0.00 0.04 0.04 62 1012.6
20260903205507 91 232 3.0 13.0 0.00 0.04 0.04 61 1012.7
20260903205010 91 195 3.0 13.0 0.00 0.04 0.04 63 1012.7
20260903204519 91 140 3.0 13.0 0.00 0.04 0.04 63 1012.8
20260903204011 91 198 4.0 14.0 0.00 0.04 0.04 63 1012.9
20260903203515 91 139 6.0 14.0 0.00 0.04 0.04 63 1012.9
20260903203026 91 153 4.0 13.0 0.00 0.04 0.04 63 1013.0
20260903202512 91 170 5.0 13.0 0.00 0.04 0.04 62 1013.2
20260903202014 91 185 4.0 13.0 0.00 0.04 0.04 63 1013.2
20260903201531 91 175 1.0 12.0 0.00 0.04 0.04 64 1013.2
20260903201015 91 200 3.0 12.0 0.00 0.04 0.04 63 1013.3
20260903200516 91 173 5.0 15.0 0.00 0.04 0.04 64 1013.4
20260903200033 90 134 6.0 15.0 0.00 0.04 0.04 64 1013.4
20260903195505 90 127 6.0 12.0 0.00 0.04 0.04 64 1013.3
20260903195006 90 153 3.0 13.0 0.00 0.04 0.04 66 1013.3
20260903194533 89 179 3.0 13.0 0.00 0.04 0.04 66 1013.4
20260903194009 89 120 3.0 14.0 0.00 0.04 0.04 66 1013.4
20260903193509 89 146 6.0 14.0 0.00 0.04 0.04 66 1013.4
20260903193026 89 161 4.0 14.0 0.00 0.04 0.04 66 1013.4
20260903192515 89 146 5.0 16.0 0.00 0.04 0.04 67 1013.5
20260903192011 89 213 7.0 16.0 0.00 0.04 0.04 67 1013.6
20260903191530 89 225 5.0 15.0 0.00 0.04 0.04 68 1013.7
20260903191012 88 151 8.0 16.0 0.00 0.04 0.04 69 1013.8
20260903190516 87 95 4.0 16.0 0.00 0.04 0.04 70 1013.9
20260903190031 87 150 5.0 14.0 0.00 0.04 0.04 70 1014.0
20260903185515 87 186 2.0 15.0 0.00 0.04 0.04 71 1014.1
20260903185015 86 164 3.0 15.0 0.00 0.04 0.04 72 1014.2
20260903184514 86 147 4.0 12.0 0.00 0.04 0.04 72 1014.3
20260903184006 86 169 4.0 12.0 0.00 0.04 0.04 72 1014.4
20260903183507 86 160 5.0 12.0 0.00 0.04 0.04 73 1014.4
20260903183031 85 164 5.0 10.0 0.00 0.04 0.04 75 1014.4
20260903182512 85 155 4.0 12.0 0.00 0.04 0.04 75 1014.4
20260903182009 84 165 5.0 14.0 0.00 0.04 0.04 76 1014.5
20260903181528 84 178 6.0 16.0 0.00 0.04 0.04 76 1014.5
20260903181009 84 147 5.0 17.0 0.00 0.04 0.04 76 1014.6
20260903180514 84 143 5.0 17.0 0.00 0.04 0.04 76 1014.7
20260903180035 84 200 6.0 14.0 0.00 0.04 0.04 76 1014.7
20260903175515 84 165 4.0 14.0 0.00 0.04 0.04 77 1014.7
20260903175015 83 147 5.0 14.0 0.00 0.04 0.04 78 1014.8
20260903174531 83 175 5.0 14.0 0.00 0.04 0.04 79 1014.8
20260903174016 82 172 3.0 11.0 0.00 0.04 0.04 81 1014.8
20260903173514 82 177 4.0 12.0 0.00 0.04 0.04 81 1014.9
20260903173016 82 169 6.0 15.0 0.00 0.04 0.04 82 1014.9
20260903172508 82 136 8.0 15.0 0.00 0.04 0.04 83 1015.0
20260903172008 81 144 3.0 13.0 0.00 0.04 0.04 83 1014.9
20260903171527 81 138 3.0 12.0 0.00 0.04 0.04 84 1015.0
20260903171010 81 202 3.0 11.0 0.00 0.04 0.04 84 1015.1
20260903170513 81 166 5.0 11.0 0.00 0.04 0.04 85 1015.1
20260903170026 81 187 5.0 16.0 0.00 0.04 0.04 85 1015.1
20260903165514 81 114 3.0 16.0 0.00 0.04 0.04 85 1015.1
20260903165015 80 142 5.0 11.0 0.00 0.04 0.04 86 1015.0
20260903164530 80 96 2.0 11.0 0.00 0.04 0.04 86 1015.0
20260903164016 80 145 4.0 12.0 0.00 0.04 0.04 86 1015.0
20260903163514 80 162 4.0 12.0 0.00 0.04 0.04 87 1015.0
20260903163031 80 129 4.0 11.0 0.00 0.04 0.04 87 1015.0
20260903162514 80 135 5.0 10.0 0.00 0.04 0.04 87 1014.9
20260903162016 80 149 3.0 11.0 0.00 0.04 0.04 88 1014.9
20260903161524 80 148 2.0 11.0 0.00 0.04 0.04 88 1014.8
20260903161010 79 132 4.0 11.0 0.00 0.04 0.04 88 1014.8
20260903160510 79 122 4.0 12.0 0.00 0.04 0.04 89 1014.8
20260903160033 79 146 3.0 12.0 0.00 0.04 0.04 89 1014.8
20260903155510 79 157 3.0 11.0 0.00 0.04 0.04 90 1014.8
20260903155021 79 144 3.0 9.0 0.00 0.04 0.04 91 1014.7
20260903154530 79 159 1.0 14.0 0.00 0.04 0.04 91 1014.7
20260903154016 79 146 5.0 14.0 0.00 0.04 0.04 91 1014.7
20260903153515 79 121 4.0 14.0 0.00 0.04 0.04 91 1014.6
20260903153030 79 151 3.0 14.0 0.00 0.04 0.04 91 1014.6
20260903152514 79 109 2.0 12.0 0.00 0.04 0.04 91 1014.5
20260903152021 79 138 2.0 9.0 0.00 0.04 0.04 91 1014.6
20260903151535 79 153 1.0 10.0 0.00 0.04 0.04 91 1014.6
20260903151015 79 163 4.0 10.0 0.00 0.04 0.04 91 1014.6
20260903150514 79 168 0.0 11.0 0.00 0.04 0.04 91 1014.6
20260903150021 79 165 5.0 11.0 0.00 0.04 0.04 91 1014.6
20260903145508 79 166 4.0 11.0 0.00 0.04 0.04 91 1014.6
20260903145010 79 166 1.0 10.0 0.00 0.04 0.04 92 1014.6
20260903144527 79 200 3.0 10.0 0.00 0.04 0.04 92 1014.6
20260903144014 79 156 2.0 8.0 0.00 0.04 0.04 93 1014.6
20260903143513 79 166 1.0 8.0 0.00 0.04 0.04 93 1014.7
20260903143036 79 148 1.0 8.0 0.00 0.04 0.04 93 1014.7
20260903142516 79 152 1.0 9.0 0.00 0.04 0.04 93 1014.6
20260903142021 78 147 1.0 9.0 0.00 0.04 0.04 93 1014.7
20260903141528 78 150 4.0 9.0 0.00 0.04 0.04 93 1014.8
20260903140506 78 166 1.0 9.0 0.00 0.04 0.04 94 1014.9
20260903140018 78 167 3.0 9.0 0.00 0.04 0.04 94 1014.9
20260903135508 78 172 2.0 14.0 0.00 0.04 0.04 94 1014.9
20260903135010 78 185 3.0 14.0 0.00 0.04 0.04 94 1014.8
20260903134527 78 163 0.0 8.0 0.00 0.04 0.04 94 1014.7
20260903134010 78 165 3.0 9.0 0.00 0.04 0.04 94 1014.6
20260903133510 78 155 3.0 12.0 0.00 0.04 0.04 94 1014.7
20260903133004 78 161 3.0 12.0 0.00 0.04 0.04 94 1014.7
20260903132504 78 157 3.0 10.0 0.00 0.04 0.04 94 1014.6
20260903132003 78 155 2.0 9.0 0.01 0.04 0.04 94 1014.6
20260903131515 77 178 1.0 10.0 0.01 0.04 0.04 94 1014.6
20260903131004 77 193 3.0 10.0 0.01 0.04 0.04 94 1014.6
20260903130503 77 143 3.0 10.0 0.02 0.04 0.04 94 1014.5
20260903130013 77 178 1.0 7.0 0.03 0.04 0.04 94 1014.5
20260903125504 77 180 1.0 6.0 0.04 0.04 0.04 94 1014.4
20260903125006 77 209 0.0 7.0 0.04 0.04 0.04 94 1014.3
20260903124533 77 182 2.0 7.0 0.04 0.04 0.04 94 1014.2
20260903124008 77 194 0.0 10.0 0.04 0.04 0.04 94 1014.2
20260903123511 77 202 4.0 10.0 0.04 0.04 0.04 93 1014.2
20260903123024 77 133 2.0 8.0 0.04 0.04 0.04 93 1014.2
20260903122512 77 160 1.0 9.0 0.04 0.04 0.04 93 1014.1
20260903122012 77 165 1.0 11.0 0.03 0.03 0.03 93 1014.0
20260903121505 77 160 5.0 11.0 0.03 0.03 0.03 92 1014.0
20260903121003 77 149 2.0 9.0 0.03 0.03 0.03 92 1014.2
20260903120505 77 149 2.0 11.0 0.02 0.02 0.02 92 1014.2
20260903120010 77 156 4.0 11.0 0.01 0.01 0.01 92 1014.1
20260903115504 77 163 3.0 10.0 0.00 0.00 0.00 92 1014.1
20260903115004 77 146 4.0 10.0 0.00 0.00 0.00 92 1014.1
20260903114519 77 134 1.0 11.0 0.00 0.00 0.00 92 1014.0
20260903114006 77 167 2.0 11.0 0.00 0.00 0.00 92 1014.0
20260903113510 77 135 2.0 9.0 0.00 0.00 0.00 92 1013.8
20260903113023 77 148 0.0 5.0 0.00 0.00 0.00 92 1013.8
20260903112512 77 145 0.0 5.0 0.00 0.00 0.00 92 1013.9
20260903112012 77 182 0.0 3.0 0.00 0.00 0.00 92 1013.9
20260903111525 77 183 0.0 3.0 0.00 0.00 0.00 92 1014.0
20260903111013 77 182 0.0 7.0 0.00 0.00 0.00 92 1013.8
20260903110517 77 168 1.0 7.0 0.00 0.00 0.00 92 1013.8
20260903110008 77 196 0.0 7.0 0.00 0.00 0.00 92 1013.9
20260903105504 77 142 0.0 7.0 0.00 0.00 0.00 92 1014.0
20260903105004 77 163 2.0 7.0 0.00 0.00 0.00 92 1013.8
20260903104511 77 157 0.0 13.0 0.00 0.00 0.00 92 1013.7
20260903104004 77 136 2.0 13.0 0.00 0.00 0.00 92 1013.7
20260903103508 77 146 2.0 11.0 0.00 0.00 0.00 92 1013.6
20260903103016 77 146 3.0 11.0 0.00 0.00 0.00 92 1013.6
20260903102509 77 159 1.0 8.0 0.00 0.00 0.00 92 1013.6
20260903102009 76 168 1.0 8.0 0.00 0.00 0.00 92 1013.6
20260903101530 76 157 0.0 7.0 0.00 0.00 0.00 92 1013.7
20260903101011 76 192 0.0 6.0 0.00 0.00 0.00 92 1013.6
20260903100512 76 157 1.0 6.0 0.00 0.00 0.00 92 1013.6
20260903100032 76 148 0.0 6.0 0.00 0.00 0.00 93 1013.6
20260903095514 76 173 0.0 5.0 0.00 0.00 0.00 93 1013.6
20260903095021 76 178 0.0 5.0 0.00 0.00 0.00 93 1013.7
20260903094510 76 169 0.0 4.0 0.00 0.00 0.00 93 1013.7
20260903094006 76 165 0.0 5.0 0.00 0.00 0.00 93 1013.7
20260903093504 76 165 0.0 7.0 0.00 0.00 0.00 93 1013.7
20260903093013 76 164 1.0 8.0 0.00 0.00 0.00 92 1013.6
20260903092507 76 162 0.0 8.0 0.00 0.00 0.00 92 1013.7
20260903092009 76 137 0.0 8.0 0.00 0.00 0.00 92 1013.8
20260903091521 76 182 0.0 6.0 0.00 0.00 0.00 92 1013.8
20260903091009 76 200 0.0 4.0 0.00 0.00 0.00 93 1013.7
20260903090510 76 203 0.0 4.0 0.00 0.00 0.00 93 1013.7
20260903090028 76 198 0.0 4.0 0.00 0.00 0.00 93 1013.5
20260903085512 76 199 0.0 4.0 0.00 0.00 0.00 93 1013.5
20260903085015 77 217 0.0 7.0 0.00 0.00 0.00 93 1013.4
20260903084530 77 220 0.0 8.0 0.00 0.00 0.00 93 1013.4
20260903084017 77 161 1.0 8.0 0.00 0.00 0.00 93 1013.3
20260903083504 77 188 0.0 8.0 0.00 0.00 0.00 94 1013.3
20260903083012 77 169 0.0 8.0 0.00 0.00 0.00 94 1013.2
20260903082503 76 162 1.0 11.0 0.00 0.00 0.00 94 1013.2
20260903082007 76 163 1.0 11.0 0.00 0.00 0.00 93 1013.2
20260903081514 76 167 0.0 9.0 0.00 0.00 0.00 93 1013.3
20260903081008 76 114 3.0 11.0 0.00 0.00 0.00 93 1013.3
20260903080508 76 125 6.0 13.0 0.00 0.00 0.00 93 1013.3
20260903080023 76 110 4.0 13.0 0.00 0.00 0.00 93 1013.3
20260903075510 76 131 6.0 13.0 0.00 0.00 0.00 93 1013.3
20260903075012 76 122 4.0 12.0 0.00 0.00 0.00 92 1013.2
20260903074527 76 110 5.0 11.0 0.00 0.00 0.00 92 1013.2
20260903074012 76 121 5.0 10.0 0.00 0.00 0.00 92 1013.2
20260903073516 76 128 4.0 10.0 0.00 0.00 0.00 92 1013.2
20260903073043 76 94 5.0 11.0 0.00 0.00 0.00 91 1013.2
20260903072513 76 115 6.0 11.0 0.00 0.00 0.00 90 1013.3
20260903072004 77 125 5.0 11.0 0.00 0.00 0.00 89 1013.4
20260903071510 77 116 5.0 11.0 0.00 0.00 0.00 88 1013.4
20260903071006 78 122 6.0 14.0 0.00 0.00 0.00 87 1013.5
20260903070507 78 121 6.0 14.0 0.00 0.00 0.00 86 1013.6
20260903070016 79 107 8.0 18.0 0.00 0.00 0.00 84 1013.7
20260903065508 79 123 10.0 18.0 0.00 0.00 0.00 83 1013.6
20260903065012 80 124 6.0 11.0 0.00 0.00 0.00 82 1013.5
20260903064526 80 119 4.0 11.0 0.00 0.00 0.00 81 1013.5
20260903064012 80 90 5.0 11.0 0.00 0.00 0.00 81 1013.5
20260903063504 80 107 3.0 10.0 0.00 0.00 0.00 81 1013.5
20260903063004 80 104 5.0 10.0 0.00 0.00 0.00 80 1013.3
20260903062503 81 120 4.0 9.0 0.00 0.00 0.00 80 1013.4
20260903062003 81 124 3.0 9.0 0.00 0.00 0.00 80 1013.4
20260903061512 81 69 4.0 9.0 0.00 0.00 0.00 79 1013.4
20260903061005 81 117 2.0 12.0 0.00 0.00 0.00 79 1013.5
20260903060507 81 136 5.0 12.0 0.00 0.00 0.00 79 1013.5
20260903060018 81 132 6.0 13.0 0.00 0.00 0.00 79 1013.6
20260903055509 81 123 4.0 13.0 0.00 0.00 0.00 79 1013.6
20260903055006 81 110 6.0 13.0 0.00 0.00 0.00 79 1013.7
20260903054523 81 127 7.0 13.0 0.00 0.00 0.00 79 1013.9
20260903054013 81 123 7.0 15.0 0.00 0.00 0.00 79 1013.8
20260903053512 81 120 9.0 15.0 0.00 0.00 0.00 78 1013.8
20260903053027 81 111 4.0 11.0 0.00 0.00 0.00 78 1013.9
20260903052512 81 121 4.0 13.0 0.00 0.00 0.00 78 1014.0
20260903052004 81 122 8.0 15.0 0.00 0.00 0.00 78 1014.0
20260903051506 81 123 7.0 16.0 0.00 0.00 0.00 78 1014.1
20260903051008 81 132 9.0 16.0 0.00 0.00 0.00 77 1014.1
20260903050506 81 98 4.0 10.0 0.00 0.00 0.00 77 1014.2
20260903050012 81 109 2.0 10.0 0.00 0.00 0.00 76 1014.3
20260903045508 81 121 4.0 10.0 0.00 0.00 0.00 76 1014.4
20260903045005 81 97 4.0 10.0 0.00 0.00 0.00 76 1014.4
20260903044518 82 123 1.0 14.0 0.00 0.00 0.00 75 1014.4
20260903044008 82 113 6.0 14.0 0.00 0.00 0.00 75 1014.3
20260903043508 82 107 4.0 14.0 0.00 0.00 0.00 75 1014.4
20260903043023 82 119 7.0 14.0 0.00 0.00 0.00 74 1014.3
20260903042510 82 121 5.0 13.0 0.00 0.00 0.00 74 1014.3
20260903042015 82 117 6.0 14.0 0.00 0.00 0.00 74 1014.3
20260903041529 82 98 8.0 14.0 0.00 0.00 0.00 73 1014.4
20260903041015 83 120 6.0 12.0 0.00 0.00 0.00 73 1014.4
20260903040504 83 134 7.0 12.0 0.00 0.00 0.00 73 1014.3
20260903040009 83 123 5.0 16.0 0.00 0.00 0.00 72 1014.4
20260903035503 83 116 6.0 16.0 0.00 0.00 0.00 72 1014.3
20260903035004 84 127 6.0 16.0 0.00 0.00 0.00 71 1014.3
20260903034519 84 126 6.0 13.0 0.00 0.00 0.00 71 1014.3
20260903034008 84 122 7.0 10.0 0.00 0.00 0.00 70 1014.3
20260903033509 84 113 6.0 11.0 0.00 0.00 0.00 70 1014.2
20260903033018 84 139 5.0 11.0 0.00 0.00 0.00 70 1014.2
20260903032511 84 126 2.0 11.0 0.00 0.00 0.00 69 1014.2
20260903032010 85 123 3.0 12.0 0.00 0.00 0.00 69 1014.1
20260903031528 85 131 5.0 12.0 0.00 0.00 0.00 68 1014.2
20260903031013 85 127 5.0 13.0 0.00 0.00 0.00 68 1014.1
20260903030514 85 115 8.0 13.0 0.00 0.00 0.00 67 1014.2